Content
SEND FEEDBACK

Daily
Averages
Monthly
Summary
United States of America

PUT IN BAY, OHIO


Home > North America > United States > Ohio
Elevation: 561 feet     Latitude: 41 39N     Longitude: 082 48W

WEATHER
 
SELECT A DAY
Number of Records: 124,786;   Date Range: 12/10/00 - 10/18/14
 
SHARE

PRINT THIS DATA

[ ← Previous Day ]
WEATHER ALMANAC - MARCH 29, 2014
[ Next Day → ]
[ °C ]   °F
Weather ElementAverageHighLow
Temperature34.5 °F37.4 °F (1:00 am)31.5 °F (10:00 pm)
Dewpoint30.3 °F32.9 °F (5:00 am)28 °F (8:00 pm)
Humidity84 %100 % (5:00 am)72 % (8:00 pm)
Barometer30.13 in30.19 in (3:00 am)30.04 in (5:00 pm)
Wind Speed10.4 mph16.1 mph (4:00 pm)
Wind Gust25.3 mph (4:00 pm)
Weather ElementAverage
Wind DirectionNNE (37 °)

Weather ElementTotal
Precipitation---
Heating Degree Days30.6 (Base 65)
Averaged from 27 records on March 29, 2014
WEATHER CONDITIONS BREAKOUT
WIND DIRECTION BREAKOUT
WEATHER BY HOUR - MARCH 29, 2014
[ °C ]   °F
Local TimeTemperatureDewpointHumidityBarometerVisibilityWind DirectionWind SpeedGust SpeedPrecipitationEventsConditions
1:00 AM37.4 °F31.6 °F80 %30.18 inNE (50°)2.3 mph
2:00 AM37.0 °F32.0 °F76 %30.18 inENE (60°)5.8 mph
2:00 AM37.0 °F31.8 °F81 %30.18 inENE (70°)5.8 mph
3:00 AM36.7 °F32.0 °F83 %30.19 inEast (90°)2.3 mph
4:00 AM35.8 °F31.3 °F84 %30.17 inENE (70°)5.8 mph
5:00 AM32.9 °F32.9 °F100 %30.16 inENE (60°)4.6 mph
6:00 AM34.2 °F30.7 °F87 %30.17 inENE (60°)4.6 mph
7:00 AM34.2 °F30.4 °F86 %30.16 inENE (70°)5.8 mph
8:00 AM34.0 °F30.0 °F80 %30.16 inNE (50°)6.9 mph
8:00 AM34.2 °F30.2 °F85 %30.16 inNE (50°)6.9 mph
9:00 AM33.6 °F30.9 °F90 %30.17 inNE (40°)6.9 mph
10:00 AM35.1 °F30.6 °F84 %30.16 inNE (40°)10.4 mph17.3 mph
11:00 AM35.1 °F30.6 °F84 %30.16 inNE (40°)10.4 mph
12:00 PM35.2 °F30.7 °F84 %30.14 inNNE (30°)12.7 mph19.6 mph
1:00 PM34.9 °F30.6 °F84 %30.13 inNNE (20°)12.7 mph18.4 mph
2:00 PM35.0 °F30.0 °F77 %30.10 inNNE (20°)13.8 mph
2:00 PM35.2 °F30.4 °F82 %30.10 inNNE (20°)13.8 mph21.9 mph
3:00 PM35.1 °F30.7 °F84 %30.07 inNNE (30°)12.7 mph18.4 mph
4:00 PM34.3 °F30.2 °F85 %30.05 inNNE (20°)16.1 mph25.3 mph
5:00 PM31.8 °F29.5 °F91 %30.04 inNNE (20°)16.1 mph21.9 mph
6:00 PM34.3 °F30.7 °F87 %30.05 inNNE (20°)15.0 mph21.9 mph
7:00 PM33.8 °F28.8 °F82 %30.07 inNNE (20°)16.1 mph24.2 mph
8:00 PM34.0 °F28.0 °F72 %30.09 inNorth (10°)16.1 mph
8:00 PM33.6 °F28.2 °F81 %30.09 inNorth (10°)16.1 mph23.0 mph
9:00 PM33.1 °F28.2 °F82 %30.11 inNorth (10°)16.1 mph23.0 mph
10:00 PM31.5 °F28.6 °F89 %30.12 inNorth (10°)12.7 mph20.7 mph
11:00 PM31.6 °F28.2 °F87 %30.12 inNorth (10°)12.7 mph20.7 mph
Hourly data recorded from CXHA, located miles away from Put In Bay, Ohio







STORIES FROM OUR PARTNERS